User: anonymous   Login
Location: Unspecified
(0.0000°N, 0.0000°E)
Time: 11:46:34
(UTC+00:00)
Language:

NJUST-1 - Orbit

View from above orbital plane
View from above orbital plane
View from above satellite
View from above satellite

Ground track
Ground track

The orbit data is extracted from the following two-line orbital elements,

1 42722U 98067MB  18169.08907936  .00013139  00000-0  12650-3 0  9998
2 42722  51.6365 356.0351 0005174 227.0601 132.9962 15.66902940 60722
Epoch (UTC): 18 June 2018 02:08:16
Eccentricity: 0.0005174
inclination: 51.6365°
perigee height: 364 km
apogee height: 371 km
right ascension of ascending node: 356.0351°
argument of perigee: 227.0601°
revolutions per day: 15.66902940
mean anomaly at epoch: 132.9962°
orbit number at epoch: 6072

The dashed part of the orbit path shows where the satellite is in the earth's shadow,  

DLR